Location: G�ndlingen
(48.0142°N, 7.6396°E)
Time: 07:54:28
(UTC+00:00)

Atlas Centaur 2 - Pass Details

Date: 05 July 2020
Orbit: 459 x 1310 km, 30.4° (Epoch: 04 August)

Event Time Altitude Azimuth Distance (km) Brightness Sun altitude
Rises 22:15:59 0° 244° (WSW) 3,570 5.4 -17.2°
Reaches altitude 10° 22:19:52 10° 221° (SW) 2,811 4.6 -17.4°
Enters shadow 22:21:20 13° 209° (SSW) 2,670 4.4 -17.4°
